Regional Weather Roundup
Issued by NWS

Home | Current Version | Previous Version | Text Only | Print | Product List | Glossary Off
Versions: 1 2 3 4 5 6 7 8 9 10 11 12 13 14 15 16 17 18 19 20 21 22 23 24 25 26 27 28 29 30 31 32 33 34 35 36 37 38 39 40 41 42 43 44 45 46 47 48 49 50

000
ASUS43 KLOT 070112
RWRIL

ILLINOIS REGIONAL WEATHER ROUNDUP
NATIONAL WEATHER SERVICE CHICAGO/ROMEOVILLE IL
700 PM CST TUE DEC 06 2016

NOTE: "FAIR" INDICATES FEW OR NO CLOUDS BELOW 12,000 FEET WITH NO
SIGNIFICANT WEATHER AND/OR OBSTRUCTIONS TO VISIBILITY.

* THESE STATIONS ARE NOT UNDER NWS QUALITY CONTROL. THEY ALSO MAY NOT
  REPORT WEATHER SUCH AS PRECIPITATION OR FOG.

ILZ001-002-007-009-015-016-024-070200-
NORTHWEST ILLINOIS

CITY           SKY/WX    TMP DP  RH WIND       PRES   REMARKS
MOLINE         CLEAR     29  20  69 W9        29.97R WCI  20
STERLING*      PTCLDY    27  23  85 W10       29.96R WCI  17
SAVANNA*       CLEAR     28  21  73 W12       29.95R WCI  18
$$

ILZ003-004-008-010-011-017-018-070200-
NORTH CENTRAL ILLINOIS

CITY           SKY/WX    TMP DP  RH WIND       PRES   REMARKS
ROCKFORD       MOCLDY    28  19  69 W17G24    29.93R WCI  16
FREEPORT*      CLOUDY    27  20  76 W13G20    29.94R WCI  16
ROCHELLE*      CLEAR     27  21  77 W18       29.94R WCI  14
DE KALB*       CLEAR     28  21  77 W20       29.92R WCI  14
$$

ILZ005-006-012>014-019>023-070200-
NORTHEAST ILLINOIS

CITY           SKY/WX    TMP DP  RH WIND       PRES   REMARKS
CHICAGO-OHARE  PTCLDY    30  22  72 W14G23    29.89R WCI  19
CHICAGO-MIDWAY PTCLDY    32  21  64 W17G25    29.91R WCI  21
AURORA         CLEAR     29  22  75 W20       29.92R WCI  16
LANSING*       PTCLDY    31  26  80 W14G25    29.92R WCI  21
JOLIET*        CLEAR     32  25  74 W9        29.94R WCI  24
WAUKEGAN       CLEAR     30  20  66 W12G18    29.85R WCI  20
DUPAGE AIRPORT CLEAR     29  21  72 SW15      29.91R WCI  18
KANKAKEE*      CLOUDY    32  26  80 W13       29.95R WCI  22
WHEELING       CLEAR     30  21  69 W9G20     29.90R WCI  22
MORRIS*        CLEAR     31  26  81 W9        29.94R WCI  22
ROMEOVILLE*    CLEAR     30  27  88 W13G23    29.93R WCI  20
NORTHERLY ISL    N/A     32  22  67 W13         N/A  WCI  22
$$

LMZ740>746-070200-
SOUTHERN LAKE MICHIGAN

STATION/POSITION SKY/WX   TEMP    WIND        PRES    VSBY  WAVE
                          AIR SEA DIR/SP/G                  HT/PER
                          (F)     (DEG/KT/KT) (MB)    (MI)  (FT/S)
HARRISON CRIB              35     260/ 25/ 29   N/A
BURNHAM HARBOR             32     260/  9/ 14   N/A
CALUMET HARBOR             32     240/  9/ 15 1011.8
BURNS HARBOR               36     270/ 25     1012.2
MICHIGAN CITY              37     230/ 25/ 29   N/A
$$

ILZ025>027-034>036-040-047-049-050-058-095>099-070200-
WEST-CENTRAL ILLINOIS

CITY           SKY/WX    TMP DP  RH WIND       PRES   REMARKS
QUINCY         CLEAR     32  20  61 W10       30.03R WCI  24
GALESBURG*     CLEAR     28  22  79 W7        29.99R WCI  21
MACOMB*        CLEAR     32  24  73 W10       30.04R WCI  23
JACKSONVILLE*  PTCLDY    33  24  70 W9        30.03R WCI  25
PITTSFIELD*    CLEAR     34  25  69 W7        30.05R WCI  28
$$

ILZ028>032-037-038-041>044-048-051>054-059>061-070200-
CENTRAL ILLINOIS

CITY           SKY/WX    TMP DP  RH WIND       PRES   REMARKS
PONTIAC        CLOUDY    33  31  91 W15       29.98R WCI  23
BLOOMINGTON    PTCLDY    31  26  82 W13       29.98R WCI  21
DECATUR        CLOUDY    35  26  69 W10       30.00R WCI  27
PEORIA         CLEAR     30  22  72 W6        30.00R WCI  24
LACON*         CLEAR     31  23  71 W6        29.97R WCI  25
LINCOLN*       PTCLDY    34  28  78 W3        30.00R
SPRINGFIELD    PTCLDY    36  27  69 W8        30.02R WCI  30
TAYLORVILLE    PTCLDY    33  28  82 W8        30.01R WCI  26
$$

ILZ033-039-045-046-055>057-062-063-070200-
EAST-CENTRAL ILLINOIS

CITY           SKY/WX    TMP DP  RH WIND       PRES   REMARKS
CHAMPAIGN      PTCLDY    33  28  81 W8        29.97R WCI  26
RANTOUL*       PTCLDY    35  31  86 W13       29.96S WCI  26
MATTOON        PTCLDY    34  30  85 SW3       29.98R
PARIS*         PTCLDY    34  31  90 W9        29.99R WCI  26
$$

ILZ079-100>102-070200-
SOUTHWEST ILLINOIS

CITY           SKY/WX    TMP DP  RH WIND       PRES   REMARKS
ALTON          CLEAR     34  27  75 W8        30.04R WCI  27
BELLEVILLE     PTCLDY    35  30  83 W3        30.03R
CAHOKIA*         N/A     38  28  67 MISG      30.05R
SPARTA*        PTCLDY    36  33  90 CALM      30.05R
$$

ILZ064>066-069>071-074>076-080>082-084>086-088>090-092>094-070200-
SOUTH-CENTRAL ILLINOIS

CITY           SKY/WX    TMP DP  RH WIND       PRES   REMARKS
CARBONDALE     MOCLDY    38  35  89 NW5       30.04R WCI  34
CAIRO*         CLOUDY    41  37  83 NW7       30.05R
EFFINGHAM*     PTCLDY    35  33  96 SW5       30.03R WCI  30
MARION         MOCLDY    39  37  93 CALM      30.04S
CENTRALIA*     PTCLDY    33  32  97 CALM      30.03R
SALEM*         PTCLDY    36  32  87 CALM      30.03R
METROPOLIS*    CLOUDY    42  37  82 N3        30.04R
$$

ILZ067-068-072-073-078-083-087-091-070200-
SOUTHEAST ILLINOIS

CITY           SKY/WX    TMP DP  RH WIND       PRES   REMARKS
LAWRENCEVILLE  PTCLDY    36  33  89 W6        30.01S WCI  31
FLORA*         CLEAR     37  34  90 W5        30.03R WCI  33
FAIRFIELD*     PTCLDY    38  35  89 CALM      30.02S
HARRISBURG*    CLOUDY    38  35  91 CALM      30.04R
ROBINSON*      CLEAR     34  32  92 W6        30.02R WCI  29
CARMI*         PTCLDY    37  35  92 NW5       30.02R WCI  33
$$

ABBREVIATIONS USED IN REMARKS
   TC - TEMPERATURE IN CELSIUS
  WCI - WIND CHILL INDEX
   HX - HEAT INDEX
  VSB - VISIBILITY
$$





USA.gov is the U.S. government's official web portal to all federal, state and local government web resources and services.